Powrót do katalogu

BREEZE-M R/B

AktywnyMEO
NORAD 37751·ROCKET BODY·🇷🇺 Russia

Wystrzelony Jul 15, 2011 z Baikonur Cosmodrome

Loading…

Następne Przeloty (najbliższe 24 godziny)

TLE

ŚwieżeSource: Space-Track

Epoka: Sep 14, 2026, 07:30 UTC

1 37751U 11035D   26257.31277781 -.00000186  00000-0  00000-0 0  9997
2 37751   9.5351  33.0706 0768750  68.3309 111.0646  1.12713666 62380

Śledź BREEZE-M R/B w czasie rzeczywistym z AllMySat

Download on the App Store